Change the Weather History Date:

Tuesday, April 8, 2014

  Actual Average Record
Temperature  
Mean Temperature 50 °F -  
Max Temperature 60 °F 66 °F 84 °F (2001)
Min Temperature 40 °F 45 °F 20 °F (2007)
Degree Days  
Heating Degree Days 15    
Growing Degree Days 0 (Base 50)    
Moisture  
Dew Point 47 °F    
Average Humidity 87    
Maximum Humidity 100    
Minimum Humidity 60    
Precipitation  
Precipitation 0.00 in - - ()
Sea Level Pressure  
Sea Level Pressure 29.82 in    
Wind  
Wind Speed 9 mph (WNW)    
Max Wind Speed 15 mph    
Max Gust Speed 24 mph    
Visibility 10 miles    
Events      
Averages and records for this station are not official NWS values.
T = Trace of Precipitation, MM = Missing Value Source: NWS Daily Summary

Daily Weather History Graph

Daily Weather History Graph

Search for Another Location

Airport or City:

Trip Planner

Search our weather history database for the weather conditions in past years. The results will help you decide how hot, cold, wet, or windy it might be!

Date:

Astronomy

Apr. 08, 2014 Rise Set
Actual Time 6:25 AM CDT 7:18 PM CDT
Civil Twilight 5:59 AM CDT 7:44 PM CDT
Nautical Twilight 5:28 AM CDT 8:15 PM CDT
Astronomical Twilight 4:56 AM CDT 8:48 PM CDT
Moon 1:20 PM CDT (4/8) 2:29 AM CDT (4/8)
Length of Visible Light 13h 45m
Length of Day
12h 52m
Waxing Gibbous, 63% of the Moon is Illuminated
Apr 8
Waxing Gibbous
Apr 15
Full
Apr 22
Last Quarter
Apr 29
New
May 6
First Quarter

Hourly Weather History & Observations

Time (CDT) Temp. Windchill Dew Point Humidity Pressure Visibility Wind Dir Wind Speed Gust Speed Precip Events Conditions
12:58 AM 44.2 °F 39.2 °F 44.2 °F 100% 29.83 in 10.0 mi WSW 9.2 mph - N/A   Mostly Cloudy
1:58 AM 41.4 °F 36.2 °F 41.4 °F 100% 29.81 in 10.0 mi SW 8.1 mph - N/A   Partly Cloudy
2:58 AM 40.1 °F 35.3 °F 40.1 °F 100% 29.80 in 10.0 mi SW 6.9 mph - N/A   Clear
3:58 AM 41.4 °F 37.6 °F 41.4 °F 100% 29.79 in 10.0 mi SSW 5.8 mph - N/A   Partly Cloudy
4:58 AM 42.6 °F 37.8 °F 42.6 °F 100% 29.79 in 10.0 mi SW 8.1 mph - N/A   Overcast
5:58 AM 44.1 °F 40.1 °F 44.1 °F 100% 29.81 in 10.0 mi WSW 6.9 mph - N/A   Overcast
6:58 AM 44.8 °F 41.0 °F 44.8 °F 100% 29.82 in 10.0 mi West 6.9 mph - N/A   Mostly Cloudy
7:58 AM 46.0 °F 43.1 °F 46.0 °F 100% 29.82 in 10.0 mi SW 5.8 mph - N/A   Overcast
8:58 AM 47.5 °F - 47.5 °F 100% 29.83 in 10.0 mi WSW 8.1 mph - N/A   Mostly Cloudy
9:29 AM 48.2 °F - 48.2 °F 100% 29.81 in 10.0 mi West 9.2 mph - N/A   Light Drizzle
9:56 AM 48.2 °F - 48.2 °F 100% 29.82 in 10.0 mi WSW 9.2 mph - N/A   Scattered Clouds
9:58 AM 48.4 °F - 48.4 °F 100% 29.83 in 10.0 mi WSW 8.1 mph - 0.00 in   Mostly Cloudy
10:58 AM 53.1 °F - 49.1 °F 86% 29.82 in 10.0 mi WSW 9.2 mph - N/A   Scattered Clouds
11:58 AM 56.3 °F - 49.6 °F 78% 29.81 in 10.0 mi West 10.4 mph - N/A   Mostly Cloudy
12:58 PM 58.8 °F - 48.0 °F 67% 29.80 in 10.0 mi West 8.1 mph - N/A   Mostly Cloudy
1:58 PM 59.2 °F - 45.3 °F 60% 29.79 in 10.0 mi NNW 9.2 mph - N/A   Mostly Cloudy
2:58 PM 60.3 °F - 46.9 °F 61% 29.77 in 10.0 mi North 8.1 mph - N/A   Scattered Clouds
3:50 PM 57.2 °F - 48.2 °F 72% 29.78 in 10.0 mi NW 15.0 mph 20.7 mph N/A   Light Drizzle
3:58 PM 56.7 °F - 49.1 °F 76% 29.79 in 10.0 mi WNW 15.0 mph - 0.00 in   Light Drizzle
4:14 PM 55.4 °F - 50.0 °F 82% 29.79 in 10.0 mi NNW 13.8 mph 18.4 mph N/A   Light Drizzle
4:27 PM 53.6 °F - 51.8 °F 94% 29.79 in 10.0 mi NNW 12.7 mph 19.6 mph N/A   Light Drizzle
4:28 PM 53.6 °F - 51.8 °F 94% 29.79 in 10.0 mi NNW 15.0 mph 20.7 mph N/A   Mostly Cloudy
4:32 PM 55.4 °F - 50.0 °F 82% 29.79 in 10.0 mi NNW 13.8 mph 20.7 mph N/A   Mostly Cloudy
4:37 PM 55.4 °F - 48.2 °F 77% 29.79 in 10.0 mi NNW 13.8 mph 24.2 mph N/A   Mostly Cloudy
4:58 PM 55.9 °F - 46.8 °F 71% 29.80 in 10.0 mi North 10.4 mph - 0.00 in   Partly Cloudy
5:58 PM 53.6 °F - 45.0 °F 73% 29.84 in 10.0 mi NW 15.0 mph 21.9 mph N/A   Overcast
6:58 PM 50.9 °F - 43.9 °F 77% 29.86 in 10.0 mi NNW 6.9 mph - N/A   Mostly Cloudy
7:58 PM 50.9 °F - 43.9 °F 77% 29.87 in 10.0 mi WNW 5.8 mph - N/A   Mostly Cloudy
8:58 PM 49.8 °F - 45.7 °F 86% 29.91 in 10.0 mi WNW 4.6 mph - N/A   Overcast
9:58 PM 49.1 °F - 46.0 °F 89% 29.93 in 10.0 mi WNW 6.9 mph - N/A   Overcast
10:58 PM 47.8 °F - 46.9 °F 97% 29.93 in 10.0 mi West 6.9 mph - N/A   Overcast
11:58 PM 47.1 °F - 46.2 °F 97% 29.95 in 10.0 mi West 6.9 mph - N/A   Partly Cloudy